Date,TemperatureHighF,TemperatureAvgF,TemperatureLowF,DewpointHighF,DewpointAvgF,DewpointLowF,HumidityHigh,HumidityAvg,HumidityLow,PressureMaxIn,PressureMinIn,WindSpeedMaxMPH,WindSpeedAvgMPH,GustSpeedMaxMPH,PrecipitationSumIn
2013-11-1,68,57,46,26,24,19,38,28,19,30.19,30.05,7,4,13,0.00
2013-11-2,68,57,46,38,27,21,58,34,17,30.06,29.83,14,6,19,0.00
2013-11-3,65,54,46,44,36,27,91,53,27,29.84,29.73,16,10,21,0.00
2013-11-4,57,49,44,45,34,20,93,60,28,30.00,29.71,13,6,18,0.00
2013-11-5,54,47,39,21,12,2,40,25,14,30.29,30.00,11,5,17,0.00
2013-11-6,62,52,41,11,6,0,23,15,10,30.37,30.25,6,4,9,0.00
2013-11-7,66,56,48,18,15,3,25,20,13,30.25,30.06,6,3,8,0.00
2013-11-8,72,61,51,21,14,4,24,16,7,30.06,29.92,13,6,16,0.00
2013-11-9,70,61,48,22,15,1,28,17,7,30.03,29.93,12,8,16,0.00
2013-11-10,67,57,48,22,14,10,29,19,13,30.12,30.02,7,4,11,0.00
2013-11-11,69,59,50,26,23,15,33,25,17,30.16,30.07,7,4,11,0.00
2013-11-12,66,61,56,25,21,19,28,22,17,30.21,30.14,8,4,11,0.00
2013-11-13,71,60,50,22,18,14,28,20,12,30.15,30.00,7,4,11,0.00
2013-11-14,73,62,54,29,21,15,33,21,15,30.04,29.68,13,5,18,0.00
2013-11-15,58,52,46,44,38,24,91,62,30,29.68,29.56,17,11,25,0.00
2013-11-16,54,47,42,43,42,40,93,82,60,29.90,29.68,21,14,30,0.00
2013-11-17,58,48,40,42,38,35,93,71,48,30.11,29.90,12,4,16,0.00
2013-11-18,60,50,42,45,40,35,93,71,48,30.15,30.01,14,6,21,0.00
2013-11-19,61,49,44,44,42,34,95,79,37,30.03,29.89,15,10,20,0.00
2013-11-20,53,47,45,46,44,42,95,89,73,29.92,29.81,20,14,29,0.00
2013-11-21,49,46,40,48,44,39,96,96,95,29.93,29.81,18,8,25,0.29
2013-11-22,40,35,32,39,34,32,98,97,96,30.11,29.92,13,7,21,0.74
2013-11-23,39,37,33,39,36,32,98,98,94,30.21,30.10,7,3,10,0.12
2013-11-24,47,42,37,40,37,33,97,84,70,30.29,30.20,6,3,9,0.00
2013-11-25,58,48,40,34,31,25,79,52,35,30.35,30.25,5,3,8,0.00
2013-11-26,57,50,45,38,31,23,65,47,35,30.29,30.12,7,3,11,0.00
2013-11-27,55,46,38,39,34,31,76,62,45,30.12,29.95,10,4,14,0.00
2013-11-28,56,47,41,38,33,29,74,58,40,30.10,29.95,16,5,22,0.00
2013-11-29,49,45,41,40,35,32,77,69,55,30.26,30.09,5,2,7,0.06
2013-11-30,56,49,42,37,34,31,74,56,39,30.29,30.17,6,4,8,0.00